Flag for U.S.A. Weather past 2 weeks in Hudson, Wisconsin, U.S.A.

Now
15 °F

Sunny.


Feels Like: 3 °F
Forecast: -5 / 11 °F
Wind: 9 mph from Southwest

Location: St. Paul Downtown Holman Field

Current Time: Feb 27, 2015 at 5:26:01 PM

Latest Report: Feb 27, 2015 at 4:53 PM


Visibility: 10 mi

Pressure: 30.57 "Hg

Humidity: 49%

Dew point: -1 °F

Location of HudsonLocation

Historic Weather in Hudson — Graph

°F

Hudson temperature yesterday

Maximum temperature yesterday: 11 °F (at 2:53 PM)
Minimum temperature yesterday: -3 °F (at 6:53 AM)
Average temperature yesterday: 4 °F

Past Weeks' High & Low Weather Summary

 TemperatureHumidityPressure
High32 °F (Feb 24, 10:53 AM)88% (Feb 20, 7:01 AM)30.86 "Hg (Feb 20, 7:01 AM)
Low-11 °F (Feb 23, 6:53 AM)27% (Feb 24, 1:53 PM)29.69 "Hg (Feb 24, 5:53 AM)
Average8 °F61%30.28 "Hg
* Reported Feb 12 3:53 PM — Feb 27 3:53 PM, Hudson, Weather by CustomWeather, © 2015

Note: Actual official high and low records may vary slightly from our data, if they occured in-between our weather recording intervals... More about our weather records

Advertising

Hudson weather history for previous 24 hours

 ConditionsComfort  
Time TempWeatherWind HumidityBarometerVisibility
3:53 PM
Fri, Feb 27
16 °FSunny.10 mph47%30.57 "Hg10 mi
2:53 PM16 °FSunny.10 mph45%30.57 "Hg10 mi
1:53 PM15 °FSunny.9 mph46%30.59 "Hg10 mi
12:53 PM14 °FSunny.9 mph49%30.60 "Hg10 mi
11:53 AM12 °FSunny.8 mph51%30.63 "Hg10 mi
10:53 AM9 °FSunny.8 mph55%30.63 "Hg10 mi
9:53 AM6 °FSunny.5 mph63%30.63 "Hg10 mi
8:53 AM1 °FSunny.No wind75%30.63 "Hg10 mi
7:53 AM-2 °FSunny.3 mph75%30.62 "Hg8 mi
6:53 AM-3 °FSunny.No wind75%30.61 "Hg10 mi
5:53 AM-3 °FClear.7 mph78%30.60 "Hg10 mi
4:53 AM-3 °FClear.3 mphN/A30.58 "Hg10 mi
3:53 AM-1 °FClear.6 mph71%30.58 "Hg10 mi
2:53 AM-1 °FClear.7 mph68%30.58 "Hg10 mi
1:53 AM1 °FClear.9 mph65%30.57 "Hg10 mi
12:53 AM1 °FClear.7 mph65%30.56 "Hg10 mi
11:53 PM
Thu, Feb 26
2 °FClear.8 mph63%30.56 "Hg10 mi
10:53 PM4 °FClear.12 mph60%30.55 "Hg10 mi
9:53 PM5 °FClear.10 mph54%30.55 "Hg10 mi
8:53 PM5 °FClear.12 mph57%30.55 "Hg10 mi
7:53 PM5 °FClear.7 mph57%30.54 "Hg10 mi
6:53 PM6 °FClear.12 mph54%30.53 "Hg10 mi
5:53 PM7 °FSunny.13 mph52%30.51 "Hg10 mi
Weather by CustomWeather, © 2015

See weather overviewHow to use our weather pages